Date,TemperatureHighF,TemperatureAvgF,TemperatureLowF,DewpointHighF,DewpointAvgF,DewpointLowF,HumidityHigh,HumidityAvg,HumidityLow,PressureMaxIn,PressureMinIn,WindSpeedMaxMPH,WindSpeedAvgMPH,GustSpeedMaxMPH,PrecipitationSumIn
2013-4-1,37.1,31.7,26.3,28.4,25.7,23.3,92,79,62,29.87,29.77,9,2,15,0.01
2013-4-2,39.1,34.1,29.3,28.9,26.3,24.1,88,73,60,29.93,29.84,13,3,19,0.00
2013-4-3,37.6,33.5,31.0,28.5,26.8,24.7,85,77,66,29.96,29.93,11,3,14,0.00
2013-4-4,37.7,33.6,30.7,30.2,28.7,27.1,88,82,73,29.94,29.84,8,2,12,0.00
2013-4-5,38.4,35.0,32.5,33.2,31.0,29.6,92,86,77,29.86,29.72,9,2,13,0.00
2013-4-6,40.0,35.9,33.8,33.7,32.0,30.9,91,86,77,30.12,29.86,8,1,11,0.00
2013-4-7,42.3,35.6,26.2,32.7,29.8,23.4,93,80,56,30.14,30.04,9,2,12,0.00
2013-4-8,49.8,35.8,18.9,32.1,24.3,17.2,95,67,38,30.04,29.71,15,3,20,0.00
2013-4-9,52.1,41.6,34.1,40.8,35.1,28.3,93,78,59,29.72,29.63,7,1,11,0.08
2013-4-10,53.2,44.6,34.4,44.7,40.1,33.3,98,85,65,29.83,29.65,10,2,20,0.02
2013-4-11,57.8,47.1,34.5,50.7,41.8,33.2,97,83,63,29.83,29.60,13,2,18,0.01
2013-4-12,57.3,49.6,36.3,51.5,44.9,34.7,99,85,65,29.79,29.52,16,3,21,0.09
2013-4-13,59.9,48.2,35.1,46.9,40.0,33.8,98,75,47,30.24,29.79,19,4,28,0.02
2013-4-14,65.1,47.9,30.7,44.3,38.1,29.6,98,73,40,30.35,30.24,8,2,11,0.00
2013-4-15,71.3,53.7,33.5,45.6,38.9,32.4,97,63,33,30.30,30.11,13,4,17,0.00
2013-4-16,70.6,57.4,44.7,51.3,44.4,38.2,89,64,42,30.13,30.07,11,2,13,0.00
2013-4-17,70.8,58.5,46.3,54.8,49.4,44.9,98,75,44,30.19,30.12,7,1,12,0.00
2013-4-18,80.0,60.4,40.0,55.6,48.5,39.2,98,70,36,30.12,29.92,10,2,15,0.00
2013-4-19,60.0,54.9,46.9,54.5,46.0,37.4,98,75,44,30.21,29.98,6,1,9,0.13
2013-4-20,51.2,47.4,43.3,46.2,43.3,40.3,96,86,74,30.29,30.21,8,1,13,0.15
2013-4-21,67.5,54.7,43.1,52.2,45.5,38.9,88,72,55,30.24,29.90,11,2,14,0.00
2013-4-22,69.4,55.3,39.8,54.6,48.3,38.7,100,79,51,30.01,29.89,8,2,11,0.00
2013-4-23,67.4,55.9,45.1,50.9,45.5,41.7,98,72,44,30.20,30.01,16,3,18,0.00
2013-4-24,72.8,56.2,37.6,47.5,43.4,36.5,98,67,37,30.31,30.20,12,2,24,0.00
2013-4-25,76.7,58.1,39.1,52.6,46.1,38.0,98,70,36,30.27,30.09,9,1,10,0.00
2013-4-26,79.8,61.4,40.7,54.0,47.2,39.6,98,66,32,30.09,29.55,11,2,17,0.00
2013-4-27,64.4,56.7,46.7,55.1,50.9,45.3,95,82,66,29.71,29.54,14,4,25,0.24
2013-4-28,51.1,46.9,42.6,45.1,42.8,40.1,95,86,74,30.02,29.65,14,2,18,0.06
2013-4-29,55.5,50.3,43.8,49.7,46.5,42.3,95,87,78,30.14,29.96,8,2,10,0.00
2013-4-30,63.1,53.3,45.3,53.0,47.8,44.1,97,83,67,30.14,30.02,13,2,22,0.03